User: anonymous   Login
Location: Dvur Kralove nad Labem
(50.4330°N, 15.8170°E)
Time: 21:21:07
(UTC+02:00)
Language:

ISS - Orbit

View from above orbital plane
View from above orbital plane
View from above satellite
View from above satellite

Ground track
Ground track

The orbit data is extracted from the following two-line orbital elements,

1 25544U 98067A   22181.68760009  .00007741  00000-0  14458-3 0  9994
2 25544  51.6441 269.7245 0004520 316.9375 196.7469 15.49778418347272
Epoch (UTC): 30 June 2022 16:30:08
Eccentricity: 0.0004520
inclination: 51.6441°
perigee height: 414 km
apogee height: 420 km
right ascension of ascending node: 269.7245°
argument of perigee: 316.9375°
revolutions per day: 15.49778418
mean anomaly at epoch: 196.7469°
orbit number at epoch: 34727

The dashed part of the orbit path shows where the satellite is in the earth's shadow,  

DLR